Tracking 25648 objects as of 17-May-2022
HD Live streaming from Space Station
objects crossing your sky now

COSMOS 2251 DEB

Track COSMOS 2251 DEB now!
10-day predictions


NORAD ID: 34045
Int'l Code: 1993-036JG
Perigee: 769.0 km
Apogee: 808.7 km
Inclination: 74.0 °
Period: 100.5 minutes
Semi major axis: 7159 km
RCS: 0.1155 m2 (medium)
Launch date: June 16, 1993
Source: Commonwealth of Independent States (former USSR) (CIS)
Launch site: PLESETSK MISSILE AND SPACE COMPLEX (PKMTR)

Note: This is SATELLITE DEBRIS
aabbcc
Your satellite tracking list
Your tracking list is empty




NASA's NSSDC Master Catalog

Two Line Element Set (TLE):
1 34045U 93036JG  22137.49019303  .00000185  00000-0  76770-4 0  9996
2 34045  74.0381 176.7644 0027706 222.4319 244.3000 14.32996029693300
Source of the keplerian elements: AFSPC